owner,sensor,date,latitude,longitude,vertical_datum,direction_of_sea_water_velocity,sea_water_speed,upward_sea_water_velocity,qcFlag 
TABS,ioos:station:wmo:42049:1,2008-09-01T00:00:00Z,28.3507,-96.0058,2.0,252.2117364,25.76155663,-99999.0,'11111222,11111222,99999999' 
TABS,ioos:station:wmo:42049:1,2008-09-01T00:30:00Z,28.3507,-96.0058,2.0,256.8233216,28.60302257,-99999.0,'11111222,11111222,99999999' 
TABS,ioos:station:wmo:42049:1,2008-09-01T01:00:00Z,28.3507,-96.0058,2.0,251.5899918,7.156235044,-99999.0,'11133222,11111222,99999999' 
TABS,ioos:station:wmo:42049:1,2008-09-01T01:30:00Z,28.3507,-96.0058,2.0,274.9039993,10.87982077,-99999.0,'11111222,11111222,99999999' 
TABS,ioos:station:wmo:42049:1,2008-09-01T02:00:00Z,28.3507,-96.0058,2.0,259.4631524,28.76501347,-99999.0,'11111222,11111222,99999999' 
TABS,ioos:station:wmo:42049:1,2008-09-01T02:30:00Z,28.3507,-96.0058,2.0,257.4585331,30.39521179,-99999.0,'11111222,11111222,99999999' 
TABS,ioos:station:wmo:42049:1,2008-09-01T03:00:00Z,28.3507,-96.0058,2.0,262.831631,28.12984536,-99999.0,'11111222,11111222,99999999' 
TABS,ioos:station:wmo:42049:1,2008-09-01T03:30:00Z,28.3507,-96.0058,2.0,261.5628747,30.1260087,-99999.0,'11111222,11111222,99999999' 
TABS,ioos:station:wmo:42049:1,2008-09-01T04:00:00Z,28.3507,-96.0058,2.0,261.3277908,28.12147934,-99999.0,'11111222,11111222,99999999' 
TABS,ioos:station:wmo:42049:1,2008-09-01T04:30:00Z,28.3507,-96.0058,2.0,262.5297621,26.99912962,-99999.0,'11111222,11111222,99999999' 
TABS,ioos:station:wmo:42049:1,2008-09-01T05:00:00Z,28.3507,-96.0058,2.0,259.6325658,28.84082176,-99999.0,'11111222,11111222,99999999' 
TABS,ioos:station:wmo:42049:1,2008-09-01T05:30:00Z,28.3507,-96.0058,2.0,265.2780427,25.99822494,-99999.0,'11111222,11111222,99999999' 
TABS,ioos:station:wmo:42049:1,2008-09-01T06:00:00Z,28.3507,-96.0058,2.0,264.0539638,28.86527672,-99999.0,'11111222,11111222,99999999' 
TABS,ioos:station:wmo:42049:1,2008-09-01T06:30:00Z,28.3507,-96.0058,2.0,267.2771969,27.79136557,-99999.0,'11111222,11111222,99999999' 
TABS,ioos:station:wmo:42049:1,2008-09-01T07:00:00Z,28.3507,-96.0058,2.0,274.2291313,24.81756233,-99999.0,'11111222,11111222,99999999' 
TABS,ioos:station:wmo:42049:1,2008-09-01T07:30:00Z,28.3507,-96.0058,2.0,265.6302513,22.44523335,-99999.0,'11111222,11111222,99999999' 
TABS,ioos:station:wmo:42049:1,2008-09-01T08:00:00Z,28.3507,-96.0058,2.0,263.8584828,20.65855029,-99999.0,'11111222,11111222,99999999' 
TABS,ioos:station:wmo:42049:1,2008-09-01T08:30:00Z,28.3507,-96.0058,2.0,270.408005,19.68049796,-99999.0,'11111222,11111222,99999999' 
TABS,ioos:station:wmo:42049:1,2008-09-01T09:00:00Z,28.3507,-96.0058,2.0,273.3278174,21.53630655,-99999.0,'11111222,11111222,99999999' 
TABS,ioos:station:wmo:42049:1,2008-09-01T09:30:00Z,28.3507,-96.0058,2.0,272.8575857,21.86718317,-99999.0,'11111222,11111222,99999999' 
TABS,ioos:station:wmo:42049:1,2008-09-01T10:00:00Z,28.3507,-96.0058,2.0,266.3194355,21.34401321,-99999.0,'11111222,11111222,99999999' 
TABS,ioos:station:wmo:42049:1,2008-09-01T10:30:00Z,28.3507,-96.0058,2.0,264.6510975,21.88528501,-99999.0,'11111222,11111222,99999999' 
TABS,ioos:station:wmo:42049:1,2008-09-01T11:00:00Z,28.3507,-96.0058,2.0,259.7825715,21.59239218,-99999.0,'11111222,11111222,99999999' 
TABS,ioos:station:wmo:42049:1,2008-09-01T11:30:00Z,28.3507,-96.0058,2.0,264.0424619,6.937463513,-99999.0,'11133222,11111222,99999999' 
TABS,ioos:station:wmo:42049:1,2008-09-01T12:00:00Z,28.3507,-96.0058,2.0,257.4838128,19.10398126,-99999.0,'11111222,11111222,99999999' 
TABS,ioos:station:wmo:42049:1,2008-09-01T12:30:00Z,28.3507,-96.0058,2.0,252.5063316,24.05236995,-99999.0,'11111222,11111222,99999999' 
TABS,ioos:station:wmo:42049:1,2008-09-01T13:00:00Z,28.3507,-96.0058,2.0,246.2176043,24.50042449,-99999.0,'11111222,11111222,99999999' 
TABS,ioos:station:wmo:42049:1,2008-09-01T13:30:00Z,28.3507,-96.0058,2.0,244.4377401,23.24525328,-99999.0,'11111222,11111222,99999999' 
TABS,ioos:station:wmo:42049:1,2008-09-01T14:00:00Z,28.3507,-96.0058,2.0,251.6598123,24.75750593,-99999.0,'11111222,11111222,99999999' 
TABS,ioos:station:wmo:42049:1,2008-09-01T14:30:00Z,28.3507,-96.0058,2.0,249.1701225,24.52274047,-99999.0,'11111222,11111222,99999999' 
TABS,ioos:station:wmo:42049:1,2008-09-01T15:00:00Z,28.3507,-96.0058,2.0,241.9284783,25.52235295,-99999.0,'11111222,11111222,99999999' 
TABS,ioos:station:wmo:42049:1,2008-09-01T15:30:00Z,28.3507,-96.0058,2.0,242.1513515,26.75902838,-99999.0,'11111222,11111222,99999999' 
TABS,ioos:station:wmo:42049:1,2008-09-01T16:00:00Z,28.3507,-96.0058,2.0,242.2369806,25.89037852,-99999.0,'11111222,11111222,99999999' 
TABS,ioos:station:wmo:42049:1,2008-09-01T16:30:00Z,28.3507,-96.0058,2.0,241.1203299,23.81118435,-99999.0,'11111222,11111222,99999999' 
TABS,ioos:station:wmo:42049:1,2008-09-01T17:00:00Z,28.3507,-96.0058,2.0,243.9809208,25.32685729,-99999.0,'11111222,11111222,99999999' 
TABS,ioos:station:wmo:42049:1,2008-09-01T17:30:00Z,28.3507,-96.0058,2.0,241.0300332,22.91751514,-99999.0,'11111222,11111222,99999999' 
TABS,ioos:station:wmo:42049:1,2008-09-01T18:00:00Z,28.3507,-96.0058,2.0,242.6014259,22.14388629,-99999.0,'11111222,11111222,99999999' 
TABS,ioos:station:wmo:42049:1,2008-09-01T18:30:00Z,28.3507,-96.0058,2.0,239.3152474,21.10486674,-99999.0,'11111222,11111222,99999999' 
TABS,ioos:station:wmo:42049:1,2008-09-01T19:00:00Z,28.3507,-96.0058,2.0,239.8656133,23.92313107,-99999.0,'11111222,11111222,99999999' 
TABS,ioos:station:wmo:42049:1,2008-09-01T19:30:00Z,28.3507,-96.0058,2.0,240.1897449,19.67316192,-99999.0,'11111222,11111222,99999999' 
TABS,ioos:station:wmo:42049:1,2008-09-01T20:00:00Z,28.3507,-96.0058,2.0,240.6854371,22.93715109,-99999.0,'11111222,11111222,99999999' 
TABS,ioos:station:wmo:42049:1,2008-09-01T20:30:00Z,28.3507,-96.0058,2.0,242.0832173,23.32420417,-99999.0,'11111222,11111222,99999999' 
TABS,ioos:station:wmo:42049:1,2008-09-01T21:00:00Z,28.3507,-96.0058,2.0,235.8734515,24.77640208,-99999.0,'11111222,11111222,99999999' 
TABS,ioos:station:wmo:42049:1,2008-09-01T21:30:00Z,28.3507,-96.0058,2.0,240.442685,21.93442044,-99999.0,'11111222,11111222,99999999' 
TABS,ioos:station:wmo:42049:1,2008-09-01T22:00:00Z,28.3507,-96.0058,2.0,238.7832586,22.16983762,-99999.0,'11111222,11111222,99999999' 
TABS,ioos:station:wmo:42049:1,2008-09-01T22:30:00Z,28.3507,-96.0058,2.0,241.259851,20.85965005,-99999.0,'11111222,11111222,99999999' 
TABS,ioos:station:wmo:42049:1,2008-09-01T23:00:00Z,28.3507,-96.0058,2.0,240.1439799,19.24402505,-99999.0,'11111222,11111222,99999999' 
TABS,ioos:station:wmo:42049:1,2008-09-01T23:30:00Z,28.3507,-96.0058,2.0,244.7087163,20.71558351,-99999.0,'11111222,11111222,99999999' 
TABS,ioos:station:wmo:42049:1,2008-09-02T00:00:00Z,28.3507,-96.0058,2.0,242.4748119,18.15494698,-99999.0,'11111222,11111222,99999999' 
TABS,ioos:station:wmo:42049:1,2008-09-02T00:30:00Z,28.3507,-96.0058,2.0,240.7458859,16.20697381,-99999.0,'11111222,11111222,99999999' 
TABS,ioos:station:wmo:42049:1,2008-09-02T01:00:00Z,28.3507,-96.0058,2.0,241.4993842,6.224291124,-99999.0,'11133222,11111222,99999999' 
TABS,ioos:station:wmo:42049:1,2008-09-02T01:30:00Z,28.3507,-96.0058,2.0,262.0167309,7.704660927,-99999.0,'11133222,11111222,99999999' 
TABS,ioos:station:wmo:42049:1,2008-09-02T02:00:00Z,28.3507,-96.0058,2.0,276.6946344,15.01234825,-99999.0,'11111222,11111222,99999999' 
TABS,ioos:station:wmo:42049:1,2008-09-02T02:30:00Z,28.3507,-96.0058,2.0,273.0611997,12.54790022,-99999.0,'11111222,11111222,99999999' 
TABS,ioos:station:wmo:42049:1,2008-09-02T03:00:00Z,28.3507,-96.0058,2.0,268.7415999,11.84285439,-99999.0,'11111222,11111222,99999999' 
TABS,ioos:station:wmo:42049:1,2008-09-02T03:30:00Z,28.3507,-96.0058,2.0,296.3184475,11.41299698,-99999.0,'11111222,11111222,99999999' 
TABS,ioos:station:wmo:42049:1,2008-09-02T04:00:00Z,28.3507,-96.0058,2.0,332.5554598,9.611753222,-99999.0,'11133222,11111222,99999999' 
TABS,ioos:station:wmo:42049:1,2008-09-02T04:30:00Z,28.3507,-96.0058,2.0,347.4172774,9.180501076,-99999.0,'11133222,11111222,99999999' 
TABS,ioos:station:wmo:42049:1,2008-09-02T05:00:00Z,28.3507,-96.0058,2.0,349.4864805,10.3029753,-99999.0,'11111222,11111222,99999999' 
TABS,ioos:station:wmo:42049:1,2008-09-02T05:30:00Z,28.3507,-96.0058,2.0,3.581610474,14.0875122,-99999.0,'11111222,11111222,99999999' 
TABS,ioos:station:wmo:42049:1,2008-09-02T06:00:00Z,28.3507,-96.0058,2.0,19.28144084,15.41462293,-99999.0,'11111222,11111222,99999999' 
TABS,ioos:station:wmo:42049:1,2008-09-02T06:30:00Z,28.3507,-96.0058,2.0,22.22196972,14.17264972,-99999.0,'11111222,11111222,99999999' 
TABS,ioos:station:wmo:42049:1,2008-09-02T07:00:00Z,28.3507,-96.0058,2.0,27.78377051,18.08493572,-99999.0,'11111222,11111222,99999999' 
TABS,ioos:station:wmo:42049:1,2008-09-02T07:30:00Z,28.3507,-96.0058,2.0,36.56203804,22.6963279,-99999.0,'11111222,11111222,99999999' 
TABS,ioos:station:wmo:42049:1,2008-09-02T08:00:00Z,28.3507,-96.0058,2.0,38.34976409,23.07969671,-99999.0,'11111222,11111222,99999999' 
TABS,ioos:station:wmo:42049:1,2008-09-02T08:30:00Z,28.3507,-96.0058,2.0,47.71473486,29.71061258,-99999.0,'11111222,11111222,99999999' 
TABS,ioos:station:wmo:42049:1,2008-09-02T09:00:00Z,28.3507,-96.0058,2.0,50.76194098,18.87612248,-99999.0,'11111222,11111222,99999999' 
TABS,ioos:station:wmo:42049:1,2008-09-02T09:30:00Z,28.3507,-96.0058,2.0,59.68675884,25.37999606,-99999.0,'11111222,11111222,99999999' 
TABS,ioos:station:wmo:42049:1,2008-09-02T10:00:00Z,28.3507,-96.0058,2.0,59.37772023,16.11772316,-99999.0,'11111222,11111222,99999999' 
TABS,ioos:station:wmo:42049:1,2008-09-02T10:30:00Z,28.3507,-96.0058,2.0,72.76725738,15.22339318,-99999.0,'11111222,11111222,99999999' 
TABS,ioos:station:wmo:42049:1,2008-09-02T11:00:00Z,28.3507,-96.0058,2.0,71.54685888,19.87175382,-99999.0,'11111222,11111222,99999999' 
TABS,ioos:station:wmo:42049:1,2008-09-02T11:30:00Z,28.3507,-96.0058,2.0,56.15154879,7.019757831,-99999.0,'11133222,11111222,99999999' 
TABS,ioos:station:wmo:42049:1,2008-09-02T12:00:00Z,28.3507,-96.0058,2.0,61.95453855,33.75353315,-99999.0,'11111222,11111222,99999999' 
TABS,ioos:station:wmo:42049:1,2008-09-02T12:30:00Z,28.3507,-96.0058,2.0,68.93377125,35.7492951,-99999.0,'11111222,11111222,99999999' 
TABS,ioos:station:wmo:42049:1,2008-09-02T13:00:00Z,28.3507,-96.0058,2.0,71.99551276,37.04396577,-99999.0,'11111222,11111222,99999999' 
TABS,ioos:station:wmo:42049:1,2008-09-02T13:30:00Z,28.3507,-96.0058,2.0,71.98045417,36.20586831,-99999.0,'11111222,11111222,99999999' 
TABS,ioos:station:wmo:42049:1,2008-09-02T14:00:00Z,28.3507,-96.0058,2.0,72.04865618,34.84637858,-99999.0,'11111222,11111222,99999999' 
TABS,ioos:station:wmo:42049:1,2008-09-02T14:30:00Z,28.3507,-96.0058,2.0,73.50907911,31.88145856,-99999.0,'11111222,11111222,99999999' 
TABS,ioos:station:wmo:42049:1,2008-09-02T15:00:00Z,28.3507,-96.0058,2.0,77.31827042,30.47341464,-99999.0,'11111222,11111222,99999999' 
TABS,ioos:station:wmo:42049:1,2008-09-02T15:30:00Z,28.3507,-96.0058,2.0,80.21092836,29.11389016,-99999.0,'11111222,11111222,99999999' 
TABS,ioos:station:wmo:42049:1,2008-09-02T16:00:00Z,28.3507,-96.0058,2.0,82.35380674,28.63460319,-99999.0,'11111222,11111222,99999999' 
TABS,ioos:station:wmo:42049:1,2008-09-02T16:30:00Z,28.3507,-96.0058,2.0,87.03042168,25.09369642,-99999.0,'11111222,11111222,99999999' 
TABS,ioos:station:wmo:42049:1,2008-09-02T17:00:00Z,28.3507,-96.0058,2.0,89.75742886,23.62021168,-99999.0,'11111222,11111222,99999999' 
TABS,ioos:station:wmo:42049:1,2008-09-02T17:30:00Z,28.3507,-96.0058,2.0,95.2210974,25.27486696,-99999.0,'11111222,11111222,99999999' 
TABS,ioos:station:wmo:42049:1,2008-09-02T18:00:00Z,28.3507,-96.0058,2.0,95.84042022,20.63712432,-99999.0,'11111222,11111222,99999999' 
TABS,ioos:station:wmo:42049:1,2008-09-02T18:30:00Z,28.3507,-96.0058,2.0,91.67621175,21.87936242,-99999.0,'11111222,11111222,99999999' 
TABS,ioos:station:wmo:42049:1,2008-09-02T19:00:00Z,28.3507,-96.0058,2.0,98.95399381,17.60453635,-99999.0,'11111222,11111222,99999999' 
TABS,ioos:station:wmo:42049:1,2008-09-02T19:30:00Z,28.3507,-96.0058,2.0,96.34731479,17.72867733,-99999.0,'11111222,11111222,99999999' 
TABS,ioos:station:wmo:42049:1,2008-09-02T20:00:00Z,28.3507,-96.0058,2.0,98.68068062,15.30532587,-99999.0,'11111222,11111222,99999999' 
TABS,ioos:station:wmo:42049:1,2008-09-02T20:30:00Z,28.3507,-96.0058,2.0,93.98468669,14.96617854,-99999.0,'11111222,11111222,99999999' 
TABS,ioos:station:wmo:42049:1,2008-09-02T21:00:00Z,28.3507,-96.0058,2.0,91.69178461,9.48413412,-99999.0,'11133222,11111222,99999999' 
TABS,ioos:station:wmo:42049:1,2008-09-02T21:30:00Z,28.3507,-96.0058,2.0,110.1436076,4.878401378,-99999.0,'11133222,11111222,99999999' 
TABS,ioos:station:wmo:42049:1,2008-09-02T22:00:00Z,28.3507,-96.0058,2.0,106.6657185,4.916523162,-99999.0,'11133222,11111222,99999999' 
TABS,ioos:station:wmo:42049:1,2008-09-02T22:30:00Z,28.3507,-96.0058,2.0,119.4803044,4.836165837,-99999.0,'11133222,11111222,99999999' 
TABS,ioos:station:wmo:42049:1,2008-09-02T23:00:00Z,28.3507,-96.0058,2.0,137.2138301,5.491247581,-99999.0,'11133222,11111222,99999999' 
TABS,ioos:station:wmo:42049:1,2008-09-02T23:30:00Z,28.3507,-96.0058,2.0,179.3826251,5.57032315,-99999.0,'11133222,11111222,99999999' 
TABS,ioos:station:wmo:42049:1,2008-09-03T00:00:00Z,28.3507,-96.0058,2.0,204.2219247,4.704147107,-99999.0,'11133222,11111222,99999999' 
TABS,ioos:station:wmo:42049:1,2008-09-03T00:30:00Z,28.3507,-96.0058,2.0,210.1369031,3.804234483,-99999.0,'11133222,11111222,99999999' 
TABS,ioos:station:wmo:42049:1,2008-09-03T01:00:00Z,28.3507,-96.0058,2.0,281.7976415,3.228188346,-99999.0,'11133222,11111222,99999999' 
TABS,ioos:station:wmo:42049:1,2008-09-03T01:30:00Z,28.3507,-96.0058,2.0,228.1834295,5.729336785,-99999.0,'11133222,11111222,99999999' 
TABS,ioos:station:wmo:42049:1,2008-09-03T02:00:00Z,28.3507,-96.0058,2.0,234.2299737,11.77016992,-99999.0,'11111222,11111222,99999999' 
TABS,ioos:station:wmo:42049:1,2008-09-03T02:30:00Z,28.3507,-96.0058,2.0,241.7852245,12.58533273,-99999.0,'11111222,11111222,99999999' 
TABS,ioos:station:wmo:42049:1,2008-09-03T03:00:00Z,28.3507,-96.0058,2.0,252.3366364,17.36880537,-99999.0,'11111222,11111222,99999999' 
TABS,ioos:station:wmo:42049:1,2008-09-03T03:30:00Z,28.3507,-96.0058,2.0,247.7454133,18.56268569,-99999.0,'11111222,11111222,99999999' 
TABS,ioos:station:wmo:42049:1,2008-09-03T04:00:00Z,28.3507,-96.0058,2.0,252.6329998,18.99594167,-99999.0,'11111222,11111222,99999999' 
TABS,ioos:station:wmo:42049:1,2008-09-03T04:30:00Z,28.3507,-96.0058,2.0,262.8426319,15.571323,-99999.0,'11111222,11111222,99999999' 
TABS,ioos:station:wmo:42049:1,2008-09-03T05:00:00Z,28.3507,-96.0058,2.0,258.2896787,18.82172415,-99999.0,'11111222,11111222,99999999' 
TABS,ioos:station:wmo:42049:1,2008-09-03T05:30:00Z,28.3507,-96.0058,2.0,256.2292847,21.42582787,-99999.0,'11111222,11111222,99999999' 
TABS,ioos:station:wmo:42049:1,2008-09-03T06:00:00Z,28.3507,-96.0058,2.0,258.418987,23.66167576,-99999.0,'11111222,11111222,99999999' 
TABS,ioos:station:wmo:42049:1,2008-09-03T06:30:00Z,28.3507,-96.0058,2.0,262.5951664,22.89088246,-99999.0,'11111222,11111222,99999999' 
TABS,ioos:station:wmo:42049:1,2008-09-03T07:00:00Z,28.3507,-96.0058,2.0,263.9198484,21.62161187,-99999.0,'11111222,11111222,99999999' 
TABS,ioos:station:wmo:42049:1,2008-09-03T07:30:00Z,28.3507,-96.0058,2.0,265.3577753,21.87173747,-99999.0,'11111222,11111222,99999999' 
TABS,ioos:station:wmo:42049:1,2008-09-03T08:00:00Z,28.3507,-96.0058,2.0,266.6284528,21.59737253,-99999.0,'11111222,11111222,99999999' 
TABS,ioos:station:wmo:42049:1,2008-09-03T08:30:00Z,28.3507,-96.0058,2.0,263.9619107,21.96182369,-99999.0,'11111222,11111222,99999999' 
TABS,ioos:station:wmo:42049:1,2008-09-03T09:00:00Z,28.3507,-96.0058,2.0,269.7676142,22.23018219,-99999.0,'11111222,11111222,99999999' 
TABS,ioos:station:wmo:42049:1,2008-09-03T09:30:00Z,28.3507,-96.0058,2.0,275.4450594,18.8651133,-99999.0,'11111222,11111222,99999999' 
TABS,ioos:station:wmo:42049:1,2008-09-03T10:00:00Z,28.3507,-96.0058,2.0,265.8601841,17.45553494,-99999.0,'11111222,11111222,99999999' 
TABS,ioos:station:wmo:42049:1,2008-09-03T10:30:00Z,28.3507,-96.0058,2.0,271.4631154,16.84548901,-99999.0,'11111222,11111222,99999999' 
TABS,ioos:station:wmo:42049:1,2008-09-03T11:00:00Z,28.3507,-96.0058,2.0,278.6538782,13.15980623,-99999.0,'11111222,11111222,99999999' 
TABS,ioos:station:wmo:42049:1,2008-09-03T11:30:00Z,28.3507,-96.0058,2.0,288.1305654,3.567099662,-99999.0,'11133222,11111222,99999999' 
TABS,ioos:station:wmo:42049:1,2008-09-03T12:00:00Z,28.3507,-96.0058,2.0,266.2184262,12.73772743,-99999.0,'11111222,11111222,99999999' 
TABS,ioos:station:wmo:42049:1,2008-09-03T12:30:00Z,28.3507,-96.0058,2.0,260.4215124,10.57745243,-99999.0,'11111222,11111222,99999999' 
TABS,ioos:station:wmo:42049:1,2008-09-03T13:00:00Z,28.3507,-96.0058,2.0,267.5517899,13.111964,-99999.0,'11111222,11111222,99999999' 
TABS,ioos:station:wmo:42049:1,2008-09-03T13:30:00Z,28.3507,-96.0058,2.0,269.2480589,12.96111492,-99999.0,'11111222,11111222,99999999' 
TABS,ioos:station:wmo:42049:1,2008-09-03T14:00:00Z,28.3507,-96.0058,2.0,262.3415065,12.53177162,-99999.0,'11111222,11111222,99999999' 
TABS,ioos:station:wmo:42049:1,2008-09-03T14:30:00Z,28.3507,-96.0058,2.0,289.6351538,10.11834473,-99999.0,'11111222,11111222,99999999' 
TABS,ioos:station:wmo:42049:1,2008-09-03T15:00:00Z,28.3507,-96.0058,2.0,280.8081295,10.29257014,-99999.0,'11111222,11111222,99999999' 
TABS,ioos:station:wmo:42049:1,2008-09-03T15:30:00Z,28.3507,-96.0058,2.0,267.2053008,8.820487515,-99999.0,'11133222,11111222,99999999' 
TABS,ioos:station:wmo:42049:1,2008-09-03T16:00:00Z,28.3507,-96.0058,2.0,287.2480221,6.104506532,-99999.0,'11133222,11111222,99999999' 
TABS,ioos:station:wmo:42049:1,2008-09-03T16:30:00Z,28.3507,-96.0058,2.0,280.4129417,7.137541594,-99999.0,'11133222,11111222,99999999' 
TABS,ioos:station:wmo:42049:1,2008-09-03T17:00:00Z,28.3507,-96.0058,2.0,270.6043052,7.590421596,-99999.0,'11133222,11111222,99999999' 
TABS,ioos:station:wmo:42049:1,2008-09-03T17:30:00Z,28.3507,-96.0058,2.0,287.0821378,4.017212964,-99999.0,'11133222,11111222,99999999' 
TABS,ioos:station:wmo:42049:1,2008-09-03T18:00:00Z,28.3507,-96.0058,2.0,302.4390997,4.064148127,-99999.0,'11133222,11111222,99999999' 
TABS,ioos:station:wmo:42049:1,2008-09-03T18:30:00Z,28.3507,-96.0058,2.0,319.8118389,2.107534104,-99999.0,'11133222,11111222,99999999' 
TABS,ioos:station:wmo:42049:1,2008-09-03T19:00:00Z,28.3507,-96.0058,2.0,354.4492686,3.928422075,-99999.0,'11133222,11111222,99999999' 
TABS,ioos:station:wmo:42049:1,2008-09-03T19:30:00Z,28.3507,-96.0058,2.0,22.44044255,4.663099827,-99999.0,'11133222,11111222,99999999' 
TABS,ioos:station:wmo:42049:1,2008-09-03T20:00:00Z,28.3507,-96.0058,2.0,4.112429687,4.601847455,-99999.0,'11133222,11111222,99999999' 
TABS,ioos:station:wmo:42049:1,2008-09-03T20:30:00Z,28.3507,-96.0058,2.0,17.55464827,5.967922587,-99999.0,'11133222,11111222,99999999' 
TABS,ioos:station:wmo:42049:1,2008-09-03T21:00:00Z,28.3507,-96.0058,2.0,10.09061907,7.648300465,-99999.0,'11133222,11111222,99999999' 
TABS,ioos:station:wmo:42049:1,2008-09-03T21:30:00Z,28.3507,-96.0058,2.0,2.65580469,5.395794659,-99999.0,'11133222,11111222,99999999' 
TABS,ioos:station:wmo:42049:1,2008-09-03T22:00:00Z,28.3507,-96.0058,2.0,40.04685933,4.258544352,-99999.0,'11133222,11111222,99999999' 
TABS,ioos:station:wmo:42049:1,2008-09-03T22:30:00Z,28.3507,-96.0058,2.0,40.85270524,4.204152709,-99999.0,'11133222,11111222,99999999' 
TABS,ioos:station:wmo:42049:1,2008-09-03T23:00:00Z,28.3507,-96.0058,2.0,17.44123937,5.104684123,-99999.0,'11133222,11111222,99999999' 
TABS,ioos:station:wmo:42049:1,2008-09-03T23:30:00Z,28.3507,-96.0058,2.0,28.95434547,6.651375798,-99999.0,'11133222,11111222,99999999' 
TABS,ioos:station:wmo:42049:1,2008-09-04T00:00:00Z,28.3507,-96.0058,2.0,10.7321974,5.638625719,-99999.0,'11133222,11111222,99999999' 
TABS,ioos:station:wmo:42049:1,2008-09-04T00:30:00Z,28.3507,-96.0058,2.0,24.02666085,4.543676925,-99999.0,'11133222,11111222,99999999' 
TABS,ioos:station:wmo:42049:1,2008-09-04T01:00:00Z,28.3507,-96.0058,2.0,13.3188831,2.51771722,-99999.0,'11133222,11111222,99999999' 
TABS,ioos:station:wmo:42049:1,2008-09-04T01:30:00Z,28.3507,-96.0058,2.0,29.64164722,2.749854542,-99999.0,'11133222,11111222,99999999' 
TABS,ioos:station:wmo:42049:1,2008-09-04T02:00:00Z,28.3507,-96.0058,2.0,33.599073,6.97536379,-99999.0,'11133222,11111222,99999999' 
TABS,ioos:station:wmo:42049:1,2008-09-04T02:30:00Z,28.3507,-96.0058,2.0,49.313806,6.580592678,-99999.0,'11133222,11111222,99999999' 
TABS,ioos:station:wmo:42049:1,2008-09-04T03:00:00Z,28.3507,-96.0058,2.0,33.57303036,5.424979263,-99999.0,'11133222,11111222,99999999' 
TABS,ioos:station:wmo:42049:1,2008-09-04T03:30:00Z,28.3507,-96.0058,2.0,30.56972929,6.980157591,-99999.0,'11133222,11111222,99999999' 
TABS,ioos:station:wmo:42049:1,2008-09-04T04:00:00Z,28.3507,-96.0058,2.0,31.94871013,7.483588711,-99999.0,'11133222,11111222,99999999' 
TABS,ioos:station:wmo:42049:1,2008-09-04T04:30:00Z,28.3507,-96.0058,2.0,30.53206944,5.688769639,-99999.0,'11133222,11111222,99999999' 
TABS,ioos:station:wmo:42049:1,2008-09-04T05:00:00Z,28.3507,-96.0058,2.0,50.88811103,6.134696407,-99999.0,'11133222,11111222,99999999' 
TABS,ioos:station:wmo:42049:1,2008-09-04T05:30:00Z,28.3507,-96.0058,2.0,44.64334991,5.678177525,-99999.0,'11133222,11111222,99999999' 
TABS,ioos:station:wmo:42049:1,2008-09-04T06:00:00Z,28.3507,-96.0058,2.0,59.78037334,6.735317364,-99999.0,'11133222,11111222,99999999' 
TABS,ioos:station:wmo:42049:1,2008-09-04T06:30:00Z,28.3507,-96.0058,2.0,82.66563835,6.109991817,-99999.0,'11133222,11111222,99999999' 
TABS,ioos:station:wmo:42049:1,2008-09-04T07:00:00Z,28.3507,-96.0058,2.0,75.40345861,2.976054435,-99999.0,'11133222,11111222,99999999' 
TABS,ioos:station:wmo:42049:1,2008-09-04T07:30:00Z,28.3507,-96.0058,2.0,60.85639673,4.373705523,-99999.0,'11133222,11111222,99999999' 
TABS,ioos:station:wmo:42049:1,2008-09-04T08:00:00Z,28.3507,-96.0058,2.0,49.29638225,4.24750515,-99999.0,'11133222,11111222,99999999' 
TABS,ioos:station:wmo:42049:1,2008-09-04T08:30:00Z,28.3507,-96.0058,2.0,86.54338891,4.478146938,-99999.0,'11133222,11111222,99999999' 
TABS,ioos:station:wmo:42049:1,2008-09-04T09:00:00Z,28.3507,-96.0058,2.0,118.7675821,3.49084517,-99999.0,'11133222,11111222,99999999' 
TABS,ioos:station:wmo:42049:1,2008-09-04T09:30:00Z,28.3507,-96.0058,2.0,125.7455095,2.242431716,-99999.0,'11133222,11111222,99999999' 
TABS,ioos:station:wmo:42049:1,2008-09-04T10:00:00Z,28.3507,-96.0058,2.0,159.5738125,3.0945759,-99999.0,'11133222,11111222,99999999' 
TABS,ioos:station:wmo:42049:1,2008-09-04T10:30:00Z,28.3507,-96.0058,2.0,212.2600673,1.667393175,-99999.0,'11133222,11111222,99999999' 
TABS,ioos:station:wmo:42049:1,2008-09-04T11:00:00Z,28.3507,-96.0058,2.0,186.1152788,5.350448579,-99999.0,'11133222,11111222,99999999' 
TABS,ioos:station:wmo:42049:1,2008-09-04T11:30:00Z,28.3507,-96.0058,2.0,216.3370464,2.582111539,-99999.0,'11133222,11111222,99999999' 
TABS,ioos:station:wmo:42049:1,2008-09-04T12:00:00Z,28.3507,-96.0058,2.0,237.130977,6.964976669,-99999.0,'11133222,11111222,99999999' 
TABS,ioos:station:wmo:42049:1,2008-09-04T12:30:00Z,28.3507,-96.0058,2.0,220.5834112,7.070848605,-99999.0,'11133222,11111222,99999999' 
TABS,ioos:station:wmo:42049:1,2008-09-04T13:00:00Z,28.3507,-96.0058,2.0,232.9518314,6.440031056,-99999.0,'11133222,11111222,99999999' 
TABS,ioos:station:wmo:42049:1,2008-09-04T13:30:00Z,28.3507,-96.0058,2.0,250.0463491,6.564030774,-99999.0,'11133222,11111222,99999999' 
TABS,ioos:station:wmo:42049:1,2008-09-04T14:00:00Z,28.3507,-96.0058,2.0,228.2442641,6.246695126,-99999.0,'11133222,11111222,99999999' 
TABS,ioos:station:wmo:42049:1,2008-09-04T14:30:00Z,28.3507,-96.0058,2.0,245.7865678,5.339756549,-99999.0,'11133222,11111222,99999999' 
TABS,ioos:station:wmo:42049:1,2008-09-04T15:00:00Z,28.3507,-96.0058,2.0,250.2459663,8.10706482,-99999.0,'11133222,11111222,99999999' 
TABS,ioos:station:wmo:42049:1,2008-09-04T15:30:00Z,28.3507,-96.0058,2.0,258.6378921,8.680103686,-99999.0,'11133222,11111222,99999999' 
TABS,ioos:station:wmo:42049:1,2008-09-04T16:00:00Z,28.3507,-96.0058,2.0,268.8632855,6.051189966,-99999.0,'11133222,11111222,99999999' 